Location: Brompton
(51.4000°N, 0.5333°E)
Time: 03:38:11
(UTC+00:00)

Meteor 2-9 Rocket - Pass Details

Date: 11 May 2021
Orbit: 791 x 895 km, 81.3° (Epoch: 13 June)

Event Time Altitude Azimuth Distance (km) Brightness Sun altitude
Rises 22:17:33 0° 349° (NNW) 3,510 9.0 -17.3°
Reaches altitude 10° 22:20:05 10° 353° (N) 2,557 7.9 -17.5°
Maximum altitude 22:25:50 60° 73° (ENE) 996 4.5 -17.8°
Enters shadow 22:28:39 29° 142° (SE) 1,517 5.0 -18.0°
